�������l�o���
Date,Time,MP-1(��Sv/h),MP-2(��Sv/h),MP-3(��Sv/h),MP-4(��Sv/h),MP-5(��Sv/h),MP-6(��Sv/h),MP-7(��Sv/h),����,����(m/s),���J
2015/02/05,00:00,0.516,0.362,0.599,0.546,0.467,0.253,0.228,��쐼,2.6,��
2015/02/05,00:10,0.517,0.364,0.599,0.546,0.467,0.254,0.228,��쐼,3.2,��
2015/02/05,00:20,0.516,0.363,0.598,0.543,0.468,0.254,0.229,��쐼,2.8,��
2015/02/05,00:30,0.517,0.362,0.599,0.544,0.469,0.254,0.228,��쐼,3.6,��
2015/02/05,00:40,0.515,0.363,0.598,0.545,0.468,0.254,0.229,��쐼,3.7,��
2015/02/05,00:50,0.517,0.364,0.598,0.546,0.468,0.255,0.228,��쐼,3.9,��
2015/02/05,01:00,0.516,0.362,0.598,0.545,0.468,0.252,0.229,��쐼,3.9,��
2015/02/05,01:10,0.516,0.365,0.599,0.545,0.469,0.253,0.228,��쐼,2.3,��
2015/02/05,01:20,0.517,0.362,0.599,0.545,0.466,0.253,0.229,��쐼,0.8,��
2015/02/05,01:30,0.516,0.364,0.601,0.547,0.467,0.255,0.230,��쐼,1.3,��
2015/02/05,01:40,0.516,0.364,0.597,0.544,0.469,0.254,0.228,��쐼,2.4,��
2015/02/05,01:50,0.517,0.362,0.598,0.544,0.468,0.254,0.228,��쐼,2.8,��
2015/02/05,02:00,0.517,0.363,0.599,0.544,0.468,0.254,0.230,��쐼,2.6,��
2015/02/05,02:10,0.518,0.363,0.599,0.544,0.467,0.254,0.229,��쐼,2.0,��
2015/02/05,02:20,0.516,0.363,0.599,0.547,0.467,0.254,0.229,��쐼,2.7,��
2015/02/05,02:30,0.516,0.363,0.598,0.544,0.469,0.253,0.230,��쐼,3.1,��
2015/02/05,02:40,0.514,0.363,0.598,0.547,0.469,0.254,0.229,��쐼,3.5,��
2015/02/05,02:50,0.517,0.364,0.599,0.544,0.467,0.253,0.229,��쐼,3.9,��
2015/02/05,03:00,0.516,0.362,0.598,0.546,0.467,0.253,0.228,��쐼,5.1,��
2015/02/05,03:10,0.516,0.362,0.600,0.546,0.468,0.254,0.229,�쐼,5.0,��
2015/02/05,03:20,0.517,0.364,0.600,0.544,0.468,0.254,0.228,��쐼,4.5,��
2015/02/05,03:30,0.515,0.363,0.598,0.545,0.470,0.254,0.228,��쐼,4.7,��
2015/02/05,03:40,0.517,0.362,0.599,0.544,0.468,0.254,0.229,�쐼,3.5,��
2015/02/05,03:50,0.515,0.363,0.598,0.545,0.467,0.254,0.229,�쐼,3.3,��
2015/02/05,04:00,0.516,0.362,0.599,0.545,0.469,0.253,0.226,�쐼,3.6,��
2015/02/05,04:10,0.517,0.364,0.600,0.546,0.468,0.254,0.228,�쐼,3.5,��
2015/02/05,04:20,0.515,0.364,0.599,0.544,0.469,0.254,0.229,�쐼,3.7,��
2015/02/05,04:30,0.517,0.365,0.599,0.545,0.467,0.253,0.227,�쐼,3.8,��
2015/02/05,04:40,0.516,0.362,0.599,0.546,0.467,0.254,0.229,��쐼,3.6,��
2015/02/05,04:50,0.516,0.363,0.600,0.545,0.468,0.254,0.228,��쐼,3.0,��
2015/02/05,05:00,0.517,0.362,0.600,0.546,0.469,0.253,0.229,�쐼,3.0,��
2015/02/05,05:10,0.516,0.363,0.598,0.546,0.469,0.252,0.228,�쐼,2.5,��
2015/02/05,05:20,0.516,0.362,0.600,0.545,0.466,0.255,0.229,�쐼,1.7,��
2015/02/05,05:30,0.516,0.364,0.599,0.546,0.468,0.253,0.228,��쐼,1.9,��
2015/02/05,05:40,0.518,0.362,0.598,0.546,0.468,0.254,0.228,��쐼,2.5,��
2015/02/05,05:50,0.516,0.363,0.597,0.546,0.468,0.254,0.228,��쐼,2.1,��
2015/02/05,06:00,0.516,0.363,0.599,0.546,0.467,0.255,0.228,��,1.8,��
2015/02/05,06:10,0.517,0.364,0.598,0.546,0.467,0.254,0.229,��쐼,1.4,��
2015/02/05,06:20,0.516,0.363,0.601,0.544,0.469,0.254,0.229,��쐼,1.7,��
2015/02/05,06:30,0.519,0.363,0.600,0.545,0.468,0.255,0.228,��쐼,1.9,��
2015/02/05,06:40,0.516,0.364,0.599,0.545,0.467,0.254,0.228,��쐼,1.5,��
2015/02/05,06:50,0.515,0.363,0.601,0.546,0.467,0.253,0.228,��쐼,1.4,��
2015/02/05,07:00,0.517,0.363,0.598,0.546,0.466,0.254,0.227,��,1.2,��
2015/02/05,07:10,0.516,0.362,0.598,0.546,0.467,0.253,0.230,��쐼,1.7,��
2015/02/05,07:20,0.517,0.362,0.600,0.546,0.469,0.254,0.228,��쐼,1.9,��
2015/02/05,07:30,0.517,0.364,0.599,0.546,0.468,0.254,0.229,��쐼,1.4,��
2015/02/05,07:40,0.517,0.363,0.600,0.545,0.466,0.254,0.228,�쐼,1.1,��
2015/02/05,07:50,0.517,0.363,0.601,0.546,0.468,0.253,0.229,��,0.8,��
2015/02/05,08:00,0.517,0.364,0.600,0.546,0.469,0.254,0.230,��쐼,0.9,��
2015/02/05,08:10,0.517,0.363,0.599,0.548,0.471,0.254,0.228,-,CALM,��
2015/02/05,08:20,0.518,0.360,0.601,0.546,0.467,0.254,0.229,���쓌,0.5,��
2015/02/05,08:30,0.518,-,0.599,0.546,0.470,0.253,0.228,�k�k��,0.8,��
2015/02/05,08:40,0.517,-,0.601,0.546,0.470,0.254,0.229,�k�k��,1.3,��
2015/02/05,08:50,0.517,-,0.601,0.547,0.470,0.253,0.230,�k,1.7,��
2015/02/05,09:00,0.520,-,0.602,0.548,0.469,0.253,0.228,�k,1.3,��
2015/02/05,09:10,0.518,-,0.600,0.548,0.471,0.255,0.228,�k,1.7,��
2015/02/05,09:20,0.517,-,0.599,0.548,0.469,0.255,0.229,�k,1.4,��
2015/02/05,09:30,0.519,-,0.600,0.545,0.469,0.254,0.229,�k,1.3,��
2015/02/05,09:40,0.517,-,0.599,0.545,0.471,0.254,0.229,�쐼,0.5,��
2015/02/05,09:50,0.517,-,0.600,0.545,0.471,0.254,0.228,��쐼,1.4,��
2015/02/05,10:00,0.519,-,0.598,0.547,0.471,0.253,0.228,-,CALM,��
2015/02/05,10:10,0.518,-,0.600,0.547,0.469,0.253,0.230,��,0.6,��
2015/02/05,10:20,0.516,-,0.600,0.546,0.471,0.254,0.230,��쐼,0.9,��
2015/02/05,10:30,0.520,-,0.601,0.547,0.469,0.256,0.229,�쓌,0.8,��
2015/02/05,10:40,0.520,-,0.600,0.546,0.471,0.255,0.228,��,1.5,��
2015/02/05,10:50,0.518,-,0.600,0.547,0.471,0.255,0.227,��,1.4,��
2015/02/05,11:00,0.519,-,0.600,0.549,0.471,0.253,0.229,��,1.9,��
2015/02/05,11:10,0.519,-,0.602,0.546,0.470,0.254,0.227,��,1.1,��
2015/02/05,11:20,0.517,-,0.602,0.545,0.473,0.253,0.228,��,1.4,��
2015/02/05,11:30,0.518,-,0.602,0.547,0.473,0.254,0.228,��쐼,1.5,��
2015/02/05,11:40,0.518,-,0.601,0.547,0.471,0.254,0.229,��,1.1,��
2015/02/05,11:50,0.519,-,0.601,0.548,0.472,0.254,0.227,-,CALM,��
2015/02/05,12:00,0.519,-,0.602,0.549,0.473,0.255,0.228,���k��,0.8,��
2015/02/05,12:10,0.519,-,0.602,0.548,0.472,0.255,0.229,�k��,0.9,��
2015/02/05,12:20,0.517,-,0.600,0.549,0.472,0.254,0.229,�k,0.5,��
2015/02/05,12:30,0.519,-,0.601,0.548,0.473,0.253,0.229,�k�k��,0.8,��
2015/02/05,12:40,0.520,-,0.601,0.548,0.472,0.254,0.228,�k�k��,1.1,��
2015/02/05,12:50,0.517,-,0.602,0.549,0.473,0.254,0.229,�k�k��,1.1,��
2015/02/05,13:00,0.521,-,0.602,0.548,0.474,0.254,0.228,�k�k��,1.2,��
2015/02/05,13:10,0.520,-,0.600,0.549,0.474,0.255,0.229,���k��,1.1,��
2015/02/05,13:20,0.517,-,0.601,0.548,0.473,0.254,0.228,�k,1.1,��
2015/02/05,13:30,0.520,-,0.601,0.549,0.474,0.254,0.229,�k�k��,1.1,��
2015/02/05,13:40,0.520,-,0.601,0.548,0.472,0.255,0.228,�k�k��,1.8,��
2015/02/05,13:50,0.519,-,0.601,0.549,0.471,0.255,0.228,�k�k��,2.1,��
2015/02/05,14:00,0.520,-,0.602,0.550,0.473,0.254,0.229,�k,2.9,�L
2015/02/05,14:10,0.522,-,0.601,0.548,0.474,0.254,0.228,�k,3.9,�L
2015/02/05,14:20,0.519,-,0.600,0.550,0.473,0.255,0.229,�k,3.2,�L
2015/02/05,14:30,0.521,-,0.602,0.549,0.474,0.256,0.228,�k,3.6,�L
2015/02/05,14:40,0.522,-,0.600,0.549,0.477,0.256,0.229,�k,2.7,��
2015/02/05,14:50,0.520,-,0.603,0.550,0.474,0.255,0.229,�k,2.6,��
2015/02/05,15:00,0.520,-,0.602,0.549,0.475,0.255,0.229,�k,3.4,��
2015/02/05,15:10,0.520,-,0.603,0.550,0.474,0.255,0.227,�k,2.9,��
2015/02/05,15:20,0.522,-,0.602,0.550,0.476,0.255,0.229,�k,3.3,��
2015/02/05,15:30,0.520,-,0.602,0.550,0.474,0.255,0.229,�k,3.6,��
2015/02/05,15:40,0.520,-,0.602,0.547,0.475,0.256,0.228,�k,4.3,��
2015/02/05,15:50,0.521,-,0.601,0.549,0.476,0.255,0.229,�k,4.4,��
2015/02/05,16:00,0.519,-,0.602,0.549,0.475,0.255,0.227,�k,3.2,��
2015/02/05,16:10,0.519,-,0.603,0.546,0.476,0.255,0.229,�k,3.3,��
2015/02/05,16:20,0.522,-,0.602,0.549,0.476,0.255,0.229,�k,3.3,��
2015/02/05,16:30,0.520,-,0.602,0.549,0.476,0.254,0.229,�k�k��,2.5,��
2015/02/05,16:40,0.518,-,0.602,0.550,0.474,0.254,0.227,�k,3.5,��
2015/02/05,16:50,0.520,-,0.603,0.549,0.475,0.256,0.229,�k,4.5,��
2015/02/05,17:00,0.522,-,0.604,0.548,0.476,0.255,0.227,�k,4.1,�L
2015/02/05,17:10,0.521,-,0.603,0.548,0.475,0.253,0.228,�k,5.0,�L
2015/02/05,17:20,0.521,-,0.600,0.550,0.476,0.254,0.228,�k,5.5,�L
2015/02/05,17:30,0.521,-,0.602,0.548,0.476,0.254,0.229,�k,5.3,��
2015/02/05,17:40,0.521,-,0.602,0.548,0.477,0.255,0.228,�k�k��,5.6,��
2015/02/05,17:50,0.521,-,0.602,0.550,0.476,0.254,0.228,�k�k��,6.1,��
2015/02/05,18:00,0.520,-,0.602,0.546,0.476,0.255,0.229,�k�k��,5.9,��
2015/02/05,18:10,0.522,-,0.602,0.548,0.476,0.256,0.229,�k�k��,4.9,��
2015/02/05,18:20,0.522,-,0.603,0.549,0.475,0.255,0.229,�k�k��,5.3,��
2015/02/05,18:30,0.520,-,0.603,0.549,0.478,0.253,0.227,�k�k��,5.6,��
2015/02/05,18:40,0.521,-,0.603,0.547,0.475,0.255,0.227,�k�k��,6.0,��
2015/02/05,18:50,0.521,-,0.604,0.550,0.475,0.254,0.228,�k�k��,5.9,��
2015/02/05,19:00,0.522,-,0.603,0.549,0.475,0.253,0.228,�k�k��,5.6,��
2015/02/05,19:10,0.521,-,0.604,0.549,0.477,0.253,0.228,�k�k��,5.9,��
2015/02/05,19:20,0.520,-,0.603,0.549,0.475,0.253,0.228,�k�k��,6.0,��
2015/02/05,19:30,0.522,-,0.602,0.549,0.476,0.254,0.227,�k�k��,5.5,��
2015/02/05,19:40,0.520,-,0.602,0.547,0.476,0.255,0.227,�k�k��,5.7,��
2015/02/05,19:50,0.520,-,0.604,0.548,0.474,0.255,0.227,�k�k��,6.2,��
2015/02/05,20:00,0.522,-,0.601,0.547,0.477,0.254,0.228,�k�k��,6.2,��
2015/02/05,20:10,0.521,-,0.602,0.549,0.475,0.254,0.228,�k�k��,6.0,�L
2015/02/05,20:20,0.521,-,0.603,0.548,0.477,0.253,0.227,�k�k��,6.3,�L
2015/02/05,20:30,0.520,-,0.601,0.550,0.477,0.254,0.227,�k�k��,5.8,�L
2015/02/05,20:40,0.521,-,0.603,0.549,0.477,0.252,0.227,�k�k��,5.3,�L
2015/02/05,20:50,0.523,-,0.604,0.550,0.477,0.256,0.229,�k�k��,5.2,��
2015/02/05,21:00,0.520,-,0.602,0.550,0.476,0.254,0.227,�k�k��,6.2,��
2015/02/05,21:10,0.521,-,0.603,0.547,0.479,0.253,0.228,�k�k��,7.3,��
2015/02/05,21:20,0.523,-,0.604,0.548,0.478,0.253,0.228,�k�k��,6.7,��
2015/02/05,21:30,0.521,-,0.602,0.548,0.476,0.253,0.228,�k�k��,7.0,��
2015/02/05,21:40,0.521,-,0.604,0.549,0.477,0.254,0.228,�k�k��,6.7,��
2015/02/05,21:50,0.520,-,0.602,0.549,0.479,0.254,0.227,�k�k��,7.2,��
2015/02/05,22:00,0.522,-,0.602,0.550,0.478,0.253,0.229,�k�k��,8.7,��
2015/02/05,22:10,0.522,-,0.602,0.551,0.479,0.254,0.229,�k�k��,7.6,��
2015/02/05,22:20,0.522,-,0.603,0.549,0.477,0.255,0.228,�k�k��,7.9,��
2015/02/05,22:30,0.523,-,0.604,0.549,0.478,0.255,0.228,�k�k��,7.2,��
2015/02/05,22:40,0.518,-,0.605,0.550,0.478,0.254,0.228,�k,7.6,��
2015/02/05,22:50,0.520,-,0.604,0.549,0.479,0.255,0.228,�k�k��,7.2,��
2015/02/05,23:00,0.523,-,0.604,0.549,0.478,0.253,0.228,�k,8.0,��
2015/02/05,23:10,0.521,-,0.606,0.549,0.479,0.254,0.228,�k�k��,8.7,��
2015/02/05,23:20,0.522,-,0.604,0.549,0.479,0.254,0.228,�k�k��,9.2,��
2015/02/05,23:30,0.523,-,0.605,0.549,0.478,0.253,0.227,�k�k��,7.7,��
2015/02/05,23:40,0.521,-,0.604,0.549,0.477,0.254,0.227,�k�k��,7.5,��
2015/02/05,23:50,0.521,-,0.606,0.549,0.479,0.254,0.228,�k�k��,7.8,��
